Wetbulb
69.87 69.50 69.66 69.98 70.05 70.23 70.55 71.01 71.76 71.62 73.17 72.57 71.74 69.46 70.53 72.33 72.09 72.63 72.15 71.45 72.38 72.15
70.32 70.09 69.87 70.30 70.42 70.23 71.19 71.13 71.29 71.98 72.70 72.57 72.98 72.68 72.74 72.32 71.76 71.94 71.23 70.48 71.02 72.60
69.92 70.80 70.66 71.11 70.84 70.94 70.62 71.01 70.81 71.31 71.41 71.54 71.44 72.51 72.94 72.95 72.54 71.64 70.94 69.10 70.77 71.97
69.95 70.39 70.91 70.91 70.70 70.76 71.35 71.44 70.93 70.45 70.96 69.97 70.27 71.76 72.12 72.20 72.40 71.77 71.59 71.77 71.30 71.94
70.63 70.99 70.81 70.69 70.81 70.42 69.93 69.83 69.94 70.64 70.05 69.19 70.33 72.64 72.54 71.87 72.75 72.01 71.43 71.37 71.41 71.32
70.33 70.51 70.65 70.59 70.65 70.34 69.78 69.86 69.24 68.20 68.51 69.83 72.50 72.68 72.63 72.24 71.73 72.71 72.51 72.68 71.90 71.92
69.57 70.19 69.94 70.08 69.88 69.94 69.68 69.84 70.50 70.73 71.43 71.82 71.34 71.10 70.75 70.59 71.10 71.23 72.09 72.76 72.62 72.66
70.13 70.52 70.24 69.77 69.71 70.40 70.33 69.97 69.50 69.91 69.93 68.75 68.52 66.56 66.02 67.68 68.25 69.22 70.85 71.75 72.75 72.06
69.92 69.25 69.64 69.48 69.32 69.57 69.32 69.10 69.55 68.31 67.12 66.71 65.31 59.15 59.83 61.78 65.13 67.58 69.70 70.94 71.64 68.80
68.74 68.85 68.94 68.65 68.31 68.26 68.24 68.47 68.22 65.82 62.32 59.19 57.68 57.64 58.51 60.91 62.93 66.92 69.07 70.27 68.99 65.69
68.20 67.77 67.61 67.99 68.40 67.99 68.06 66.52 63.21 58.47 56.00 56.18 57.15 56.29 59.34 63.27 66.77 66.78 63.89 64.06 64.02 60.82
67.74 67.68 67.95 67.92 67.45 66.75 65.48 61.47 58.79 57.03 55.63 55.38 54.24 53.64 58.29 63.48 63.26 60.51 58.74 58.15 58.91 57.64
68.17 67.70 66.14 65.89 66.09 66.75 63.76 60.58 57.08 54.62 53.68 52.01 52.79 52.30 53.22 59.95 59.44 56.85 57.15 58.06 57.07 54.44
64.69 65.21 65.12 64.85 65.75 65.75 61.93 59.12 57.15 54.56 52.21 51.82 51.59 51.55 51.31 51.96 58.03 59.66 59.29 57.34 56.26 53.62
MSLP
1019.31 1019.51 1019.65 1019.77 1019.91 1020.02 1020.15 1020.19 1020.04 1020.10 1020.15 1020.27 1020.48 1020.71 1020.77 1020.79 1020.85 1020.87 1021.18 1021.22 1021.17 1021.20
1019.25 1019.45 1019.58 1019.70 1019.84 1019.89 1019.95 1019.95 1019.93 1019.94 1020.02 1020.15 1020.29 1020.45 1020.67 1020.87 1020.82 1020.91 1021.09 1021.15 1021.10 1021.15
1018.95 1019.11 1019.32 1019.49 1019.59 1019.74 1019.67 1019.65 1020.06 1020.08 1020.04 1020.14 1020.17 1020.28 1020.44 1020.71 1020.73 1020.92 1021.03 1021.05 1021.03 1021.07
1018.60 1018.93 1019.12 1019.30 1019.37 1019.44 1019.53 1019.50 1019.74 1020.02 1020.11 1020.25 1020.32 1020.19 1020.34 1020.57 1020.70 1020.87 1021.01 1021.01 1021.01 1020.92
1018.21 1018.59 1018.91 1019.11 1019.53 1019.63 1019.55 1019.43 1019.50 1019.65 1019.95 1020.20 1020.35 1020.23 1020.27 1020.37 1020.44 1020.64 1020.75 1020.74 1020.87 1020.75
1018.00 1018.23 1018.54 1018.83 1019.24 1019.55 1019.74 1019.71 1019.57 1019.66 1019.71 1019.80 1019.91 1019.99 1020.09 1020.18 1020.29 1020.30 1020.33 1020.39 1020.48 1020.47
1017.72 1017.98 1018.19 1018.36 1018.88 1019.40 1019.73 1019.87 1019.71 1019.71 1019.73 1019.81 1019.91 1019.97 1020.08 1020.15 1020.20 1020.16 1020.07 1020.07 1020.19 1020.21
1017.27 1017.56 1017.95 1018.12 1018.77 1019.19 1019.73 1019.89 1019.83 1019.77 1019.80 1019.79 1019.97 1020.03 1020.07 1020.15 1020.18 1020.08 1019.86 1019.75 1019.88 1020.08
1016.82 1017.15 1017.85 1018.14 1018.56 1019.04 1019.32 1019.63 1019.64 1019.76 1019.81 1020.14 1020.25 1020.16 1020.07 1020.05 1020.11 1019.99 1019.89 1019.91 1019.99 1020.26
1016.88 1017.21 1017.49 1018.02 1018.45 1018.95 1019.11 1019.41 1019.67 1019.58 1019.73 1020.17 1020.33 1020.18 1019.93 1019.95 1019.87 1019.91 1019.88 1019.89 1020.27 1020.42
1016.52 1016.87 1017.33 1018.02 1018.32 1018.62 1018.86 1019.16 1019.81 1020.17 1020.08 1020.31 1020.41 1020.26 1019.83 1019.83 1020.05 1019.97 1020.18 1020.20 1019.91 1020.39
1016.34 1016.74 1017.18 1017.58 1017.98 1018.27 1018.64 1019.24 1019.92 1020.18 1020.33 1020.63 1020.56 1020.19 1020.08 1019.96 1019.98 1020.33 1020.28 1020.58 1020.61 1020.67
1016.31 1016.48 1017.09 1017.70 1018.13 1018.34 1018.50 1019.23 1019.85 1020.39 1020.72 1020.69 1020.85 1020.61 1020.42 1020.17 1020.23 1020.65 1021.00 1021.21 1021.15 1021.23
1016.58 1016.67 1017.25 1017.67 1018.04 1018.33 1018.79 1019.50 1020.06 1020.47 1020.87 1020.91 1021.11 1021.01 1020.81 1020.71 1020.78 1020.94 1021.05 1021.06 1021.36 1021.54
Wind_Speed
5 3 4 4 4 3 3 3 3 4 4 5 4 3 3 1 1 2 2 3 2 2
5 5 5 5 3 3 3 2 4 4 4 4 3 4 3 2 2 2 2 3 1 1
6 5 4 4 4 4 4 4 4 4 4 4 3 4 4 3 3 3 2 2 3 2
5 4 4 4 3 4 3 4 4 5 4 3 4 4 4 4 4 4 3 3 4 5
6 6 4 1 2 2 4 3 4 4 5 5 6 4 5 5 6 6 5 5 5 5
6 7 6 3 2 2 3 5 3 3 4 5 5 5 4 4 4 5 6 6 5 5
7 6 5 2 3 1 2 5 5 5 5 4 3 3 2 3 4 5 6 6 6 6
7 6 5 4 3 3 3 4 3 3 4 3 3 1 2 3 3 4 6 4 4 3
5 5 4 3 5 5 5 5 4 3 2 3 2 2 4 4 3 3 3 5 3 1
7 7 5 5 6 7 7 5 4 3 3 2 3 6 5 7 2 1 0 1 2 3
8 7 6 6 7 6 5 5 3 3 3 2 2 9 5 5 2 5 4 3 5 5
7 8 8 9 8 5 5 5 4 3 4 3 3 9 5 4 5 2 6 3 5 4
5 4 6 5 4 1 6 6 5 5 4 6 4 11 10 5 4 5 4 3 4 9
5 7 7 5 3 5 6 7 6 6 4 5 5 6 10 9 3 2 2 2 1 2
Wind_Direction
206 190 200 198 197 208 205 221 214 225 212 198 191 191 190 259 242 161 175 166 186 175
195 193 202 213 203 218 184 222 248 232 209 211 194 196 179 209 240 199 217 221 225 243
198 209 201 191 213 205 210 192 200 235 225 207 218 210 197 216 220 201 210 212 203 222
185 201 192 223 223 207 202 206 192 197 205 213 248 231 206 218 230 212 225 220 213 228
162 167 172 184 359 278 238 208 232 207 188 189 228 236 228 216 206 212 225 232 221 230
171 155 151 128 26 355 289 262 222 218 221 223 223 215 214 226 237 231 229 231 221 225
169 160 152 77 19 350 270 266 269 223 221 221 212 205 214 224 232 244 247 240 239 237
173 152 154 149 246 256 229 235 236 245 224 176 190 174 250 247 249 246 252 245 232 239
145 153 205 177 191 214 225 236 216 200 158 209 231 338 277 247 248 265 258 250 209 106
158 169 191 206 190 212 197 196 203 179 145 166 291 321 277 242 213 250 32 294 157 89
177 173 178 196 197 196 179 169 152 155 119 123 9 338 302 186 129 111 64 59 105 120
185 177 186 197 189 179 148 131 142 134 99 93 22 1 25 68 85 61 77 71 87 109
198 152 131 139 142 234 123 116 121 103 85 69 49 14 16 70 104 106 115 98 79 63
53 117 134 141 160 141 112 119 121 111 86 78 53 39 36 36 79 110 141 115 74 27